#timestamp,LO_Frequency,Hit,StdDev 
1595693915.2,286047009.2,P
1595693935.1,286047009.2,P
1595693936.0,286047009.2,P
1595693955.8,286047008.3,Y
1595693975.7,286046998.7,P
1595693995.5,286046998.7,N
1595694015.3,286047000.8,N
1595694035.2,286047001.0,N
1595694055.0,286046998.5,N
1595694055.9,286046998.5,N
1595694075.7,286046998.5,N
1595694095.6,286047001.2,N
1595694115.4,286047000.8,N
1595694135.3,286047000.4,N
1595694155.1,286047000.5,N
1595694175.8,286047000.7,N
1595694195.7,286047001.2,N
1595694215.5,286047000.7,N
1595694235.4,286047000.9,N
1595694255.2,286047000.3,N
1595694275.0,286046999.9,N
1595694275.9,286046999.9,N
1595694295.8,286047000.4,N
1595694315.6,286047001.1,N
1595694335.5,286047000.0,N
1595694355.3,286047000.0,N
1595694375.1,286047001.2,N
1595694395.9,286047000.7,N
1595694415.7,286047000.9,N
1595694435.5,286047000.6,N
1595694455.4,286047000.0,N
1595694475.2,286046999.8,N
1595694495.1,286047002.6,N
1595694496.0,286047002.6,N
1595694515.8,286046999.8,N
1595694535.6,286047002.3,N
1595694555.5,286047002.4,N
1595694575.3,286047002.3,N
1595694595.2,286047002.4,N
1595694615.9,286047001.5,N
1595694635.7,286047002.4,N
1595694655.6,286047001.9,N
1595694675.4,286047002.4,N
1595694695.2,286047002.7,N
1595694715.1,286047002.3,N
1595694716.0,286047002.3,N
1595694735.8,286047002.6,N
1595694755.7,286047002.3,N
1595694775.5,286047001.9,N
1595694795.3,286047001.7,N
1595694815.2,286047001.5,N
1595694835.0,286047001.5,N
1595694835.9,286047001.5,N
1595694855.8,286047001.4,N
1595694875.6,286047004.1,Y
1595694895.4,286047002.1,P
1595694915.3,286047002.2,P
1595694935.1,286047002.3,P
1595694955.8,286047001.6,Y
1595694975.7,286047001.1,P
1595694995.5,286047000.7,N
1595695015.4,286047000.8,N
1595695035.2,286047001.1,N
1595695055.0,286046999.9,N
1595695055.9,286046999.9,N
1595695075.8,286047000.1,N
1595695095.6,286047000.2,N
1595695115.5,286047002.4,Y
1595695135.3,286046999.7,P
1595695155.1,286047002.4,P
1595695175.9,286047002.8,N
1595695195.7,286046999.9,N
1595695215.5,286046999.8,N
1595695235.4,286047002.4,N
1595695255.2,286047002.4,N
1595695275.1,286046999.8,N
1595695276.0,286046999.8,N
1595695295.8,286047001.8,N
1595695315.6,286047001.7,N
1595695335.5,286047001.8,N
1595695355.3,286047003.7,Y
1595695375.2,286047001.9,P
1595695395.9,286047001.9,P
1595695415.7,286047001.8,P
1595695435.6,286047001.7,Y
1595695455.4,286046999.9,P
1595695475.2,286047002.8,P
1595695495.1,286046999.7,N
1595695496.0,286046999.7,N
1595695515.8,286047002.7,N
1595695535.7,286047002.4,N
1595695555.5,286047002.8,N
1595695575.3,286047002.6,N
1595695595.2,286047002.7,N
1595695615.0,286047002.3,N
1595695615.9,286047002.3,N
1595695635.8,286047002.1,N
1595695655.6,286047001.7,N
1595695675.4,286047001.4,N
1595695695.3,286047001.8,N
1595695715.1,286047003.8,Y
1595695735.8,286047002.5,P
1595695755.7,286047002.2,P
1595695775.5,286047002.5,P
1595695795.4,286047001.5,Y
1595695815.2,286047000.5,P
1595695835.0,286047000.6,N
1595695835.9,286047000.6,N
1595695855.8,286046999.9,N
1595695875.6,286047000.5,N
1595695895.4,286047000.1,N
1595695915.3,286047002.7,Y
1595695935.1,286047001.2,P
1595695955.9,286047001.2,P
1595695975.7,286047000.7,N
1595695995.5,286047000.4,N
1595696015.4,286047000.4,N
1595696035.2,286047002.5,Y
1595696055.1,286047000.8,P
1595696056.0,286047000.8,P
1595696075.8,286047001.0,P
1595696095.6,286047000.4,Y
1595696115.5,286047001.1,P
1595696135.3,286047000.7,P
1595696155.2,286047000.7,P
1595696175.9,286047000.5,N
1595696195.7,286047000.3,N
1595696215.6,286047000.4,N
1595696235.4,286046998.1,Y
1595696255.3,286046998.7,P
1595696275.1,286047001.0,N
1595696276.0,286047001.0,N
1595696295.8,286047000.8,N
1595696315.7,286047000.0,N
1595696335.5,286047000.9,N
1595696355.3,286047000.3,N
1595696375.2,286047002.8,Y
1595696395.0,286047000.2,P
1595696395.9,286047000.2,N
